CW1035 Weather Reports


Display with metric or nautical units.
time (UTC)temp
F
wind
direction
speed
MPH
gust
MPH
rain 1hr
in
rain 24hr
in
rain mn
in
humidity
%
barometer
mb
20260906051248 58 306 1.0 5.0 0.00 0.00 0.00 82 1018.0
20260906050248 59 253 0.0 4.0 0.00 0.00 0.00 81 1018.0
20260906044748 59 311 3.0 4.0 0.00 0.00 0.00 81 1018.0
20260906044247 59 262 1.0 5.0 0.00 0.00 0.00 81 1018.0
20260906043748 59 276 2.0 5.0 0.00 0.00 0.00 81 1018.0
20260906042747 59 282 3.0 5.0 0.00 0.00 0.00 81 1018.0
20260906040747 59 257 1.0 4.0 0.00 0.00 0.00 81 1018.2
20260906040246 59 256 2.0 4.0 0.00 0.00 0.00 81 1018.2
20260906035747 59 280 1.0 4.0 0.00 0.00 0.00 81 1018.1
20260906035246 59 248 2.0 5.0 0.00 0.00 0.00 81 1018.1
20260906034746 59 251 3.0 5.0 0.00 0.00 0.00 82 1018.2
20260906034246 58 252 1.0 4.0 0.00 0.00 0.00 82 1018.2
20260906033746 58 260 2.0 4.0 0.00 0.00 0.00 83 1018.2
20260906033246 58 267 4.0 5.0 0.00 0.00 0.00 83 1018.1
20260906032246 58 271 1.0 5.0 0.00 0.00 0.00 84 1018.2
20260906031745 58 265 3.0 5.0 0.00 0.00 0.00 84 1018.2
20260906031246 58 278 2.0 6.0 0.00 0.00 0.00 84 1018.2
20260906030746 58 251 5.0 6.0 0.00 0.00 0.00 84 1018.1
20260906025745 58 269 2.0 6.0 0.00 0.00 0.00 83 1018.1
20260906025245 59 283 4.0 7.0 0.00 0.00 0.00 83 1018.0
20260906024745 59 271 3.0 7.0 0.00 0.00 0.00 83 1018.1
20260906024245 59 281 4.0 6.0 0.00 0.00 0.00 82 1018.1
20260906023744 60 255 4.0 6.0 0.00 0.00 0.00 81 1018.2
20260906023244 60 283 3.0 6.0 0.00 0.00 0.00 80 1018.2
20260906022744 61 261 2.0 8.0 0.00 0.00 0.00 79 1018.1
20260906022244 62 281 3.0 8.0 0.00 0.00 0.00 77 1018.1
20260906021744 63 286 5.0 7.0 0.00 0.00 0.00 75 1018.1
20260906021244 63 331 3.0 5.0 0.00 0.00 0.00 74 1018.0
20260906020244 64 243 2.0 6.0 0.00 0.00 0.00 73 1017.9
20260906015744 64 272 2.0 6.0 0.00 0.00 0.00 73 1017.9
20260906015244 64 284 1.0 9.0 0.00 0.00 0.00 72 1017.8
20260906014243 64 281 3.0 7.0 0.00 0.00 0.00 72 1017.8
20260906013743 65 275 6.0 7.0 0.00 0.00 0.00 72 1017.8
20260906013243 64 275 2.0 5.0 0.00 0.00 0.00 71 1017.8
20260906012743 64 285 4.0 6.0 0.00 0.00 0.00 72 1017.7
20260906012243 64 279 3.0 8.0 0.00 0.00 0.00 73 1017.7
20260906011743 64 264 6.0 8.0 0.00 0.00 0.00 73 1017.7
20260906011243 64 274 3.0 8.0 0.00 0.00 0.00 73 1017.7
20260906010743 64 276 3.0 9.0 0.00 0.00 0.00 72 1017.7
20260906010242 64 287 4.0 9.0 0.00 0.00 0.00 72 1017.6
20260906005242 65 264 2.0 7.0 0.00 0.00 0.00 71 1017.7
20260906004742 65 278 3.0 6.0 0.00 0.00 0.00 71 1017.6
20260906003741 65 281 5.0 6.0 0.00 0.00 0.00 71 1017.7
20260906003242 65 265 5.0 6.0 0.00 0.00 0.00 71 1017.6
20260906002741 65 301 3.0 6.0 0.00 0.00 0.00 71 1017.5
20260906002241 65 302 3.0 7.0 0.00 0.00 0.00 70 1017.5
20260906001741 66 282 3.0 7.0 0.00 0.00 0.00 69 1017.5
20260906000241 68 26 0.0 2.0 0.00 0.00 0.00 61 1017.4
20260905235741 67 27 1.0 3.0 0.00 0.00 0.00 63 1017.4
20260905234740 68 78 1.0 4.0 0.00 0.00 0.00 63 1017.5
20260905234240 68 86 3.0 3.0 0.00 0.00 0.00 61 1017.5
20260905233741 68 101 1.0 2.0 0.00 0.00 0.00 64 1017.4
20260905233240 67 70 0.0 3.0 0.00 0.00 0.00 64 1017.5
20260905232740 67 75 1.0 4.0 0.00 0.00 0.00 66 1017.5
20260905232240 67 82 2.0 4.0 0.00 0.00 0.00 67 1017.5
20260905230740 66 100 0.0 3.0 0.00 0.00 0.00 69 1017.7
20260905230239 66 65 0.0 4.0 0.00 0.00 0.00 69 1017.7
20260905225739 67 83 0.0 4.0 0.00 0.00 0.00 69 1017.7
20260905225239 67 71 2.0 4.0 0.00 0.00 0.00 68 1017.7
20260905224739 67 85 2.0 4.0 0.00 0.00 0.00 69 1017.9
20260905224239 67 8 3.0 4.0 0.00 0.00 0.00 68 1017.9
20260905223739 67 26 1.0 3.0 0.00 0.00 0.00 68 1017.9
20260905223239 67 27 1.0 3.0 0.00 0.00 0.00 69 1017.9
20260905222739 66 15 0.0 3.0 0.00 0.00 0.00 70 1017.9
20260905222238 66 71 3.0 4.0 0.00 0.00 0.00 70 1017.9
20260905221738 67 36 2.0 4.0 0.00 0.00 0.00 70 1017.9
20260905220739 67 72 4.0 5.0 0.00 0.00 0.00 69 1017.9
20260905220239 67 79 2.0 5.0 0.00 0.00 0.00 69 1017.9
20260905215738 67 51 2.0 5.0 0.00 0.00 0.00 69 1018.0
20260905215238 67 40 5.0 6.0 0.00 0.00 0.00 68 1018.0
20260905214738 67 23 2.0 6.0 0.00 0.00 0.00 70 1018.0
20260905214237 66 261 3.0 6.0 0.00 0.00 0.00 70 1018.1
20260905213737 66 29 2.0 6.0 0.00 0.00 0.00 69 1018.1
20260905213238 66 262 0.0 5.0 0.00 0.00 0.00 70 1018.1
20260905212738 65 16 1.0 5.0 0.00 0.00 0.00 72 1018.1
20260905212237 65 269 4.0 5.0 0.00 0.00 0.00 70 1018.3
20260905211737 65 16 2.0 5.0 0.00 0.00 0.00 72 1018.3
20260905211237 65 25 4.0 5.0 0.00 0.00 0.00 69 1018.4
20260905210737 65 39 3.0 5.0 0.00 0.00 0.00 71 1018.4
20260905210237 65 32 2.0 6.0 0.00 0.00 0.00 72 1018.4
20260905205737 65 65 3.0 6.0 0.00 0.00 0.00 71 1018.5
20260905205236 64 11 2.0 5.0 0.00 0.00 0.00 70 1018.5
20260905204736 64 23 0.0 5.0 0.00 0.00 0.00 69 1018.5
20260905203736 64 23 3.0 4.0 0.00 0.00 0.00 71 1018.6
20260905203236 64 41 0.0 4.0 0.00 0.00 0.00 74 1018.6
20260905202736 64 24 2.0 4.0 0.00 0.00 0.00 74 1018.7
20260905202235 63 34 4.0 5.0 0.00 0.00 0.00 76 1018.6
20260905201236 62 44 2.0 5.0 0.00 0.00 0.00 78 1018.5
20260905200235 61 46 2.0 4.0 0.00 0.00 0.00 80 1018.5
20260905195735 61 345 1.0 4.0 0.00 0.00 0.00 79 1018.6
20260905194735 61 69 2.0 5.0 0.00 0.00 0.00 79 1018.6
20260905194234 61 18 3.0 4.0 0.00 0.00 0.00 80 1018.6
20260905193735 61 30 3.0 5.0 0.00 0.00 0.00 79 1018.7
20260905193238 61 23 3.0 5.0 0.00 0.00 0.00 79 1018.8
20260905192237 62 21 2.0 5.0 0.00 0.00 0.00 79 1018.7
20260905191234 62 26 2.0 5.0 0.00 0.00 0.00 78 1018.8
20260905190734 62 12 1.0 5.0 0.00 0.00 0.00 80 1018.9
20260905190304 62 7 3.0 5.0 0.00 0.00 0.00 79 1018.9
20260905185734 61 26 3.0 5.0 0.00 0.00 0.00 81 1018.9
20260905185234 61 22 5.0 5.0 0.00 0.00 0.00 81 1018.9
20260905184734 61 17 4.0 6.0 0.00 0.00 0.00 81 1018.9
20260905184234 60 18 2.0 6.0 0.00 0.00 0.00 82 1018.9
20260905183733 60 25 3.0 5.0 0.00 0.00 0.00 82 1019.0
20260905183233 60 20 3.0 5.0 0.00 0.00 0.00 83 1019.0
20260905182733 60 86 4.0 5.0 0.00 0.00 0.00 82 1019.0
20260905182234 60 94 3.0 6.0 0.00 0.00 0.00 82 1019.0
20260905180803 60 18 3.0 6.0 0.00 0.00 0.00 82 1019.2
20260905175733 60 35 2.0 5.0 0.00 0.00 0.00 83 1019.2
20260905175306 60 7 3.0 5.0 0.00 0.00 0.00 82 1019.2
20260905174802 60 30 4.0 6.0 0.00 0.00 0.00 82 1019.2
20260905174302 59 30 2.0 6.0 0.00 0.00 0.00 83 1019.2
20260905173803 60 24 4.0 6.0 0.00 0.00 0.00 82 1019.2
20260905173302 60 34 2.0 6.0 0.00 0.00 0.00 81 1019.1
20260905172802 60 47 2.0 4.0 0.00 0.00 0.00 81 1019.1
20260905172232 60 328 0.0 4.0 0.00 0.00 0.00 81 1019.1
20260905171732 60 356 2.0 4.0 0.00 0.00 0.00 81 1019.1
20260905171232 59 251 0.0 4.0 0.00 0.00 0.00 82 1019.1
20260905170802 59 245 2.0 4.0 0.00 0.00 0.00 81 1019.1
20260905170301 59 245 3.0 4.0 0.00 0.00 0.00 82 1019.1
20260905165802 59 296 1.0 4.0 0.00 0.00 0.00 81 1019.1
20260905165301 59 263 3.0 4.0 0.00 0.00 0.00 81 1019.1
20260905164731 59 328 3.0 5.0 0.00 0.00 0.00 80 1019.0
20260905163801 58 280 1.0 6.0 0.00 0.00 0.00 81 1018.8
20260905163301 58 285 2.0 6.0 0.00 0.00 0.00 80 1018.8
20260905162731 58 8 3.0 5.0 0.00 0.00 0.00 80 1018.7
20260905162231 58 311 0.0 7.0 0.00 0.00 0.00 81 1018.7
20260905161730 58 262 3.0 7.0 0.00 0.00 0.00 81 1018.7
20260905161300 57 271 1.0 6.0 0.00 0.00 0.00 81 1018.7
20260905160300 57 255 2.0 4.0 0.00 0.00 0.00 81 1018.7
20260905155800 57 289 3.0 5.0 0.00 0.00 0.00 81 1018.7
20260905154800 58 300 3.0 5.0 0.00 0.00 0.00 81 1018.8
20260905154301 58 298 2.0 4.0 0.00 0.00 0.00 81 1018.7
20260905153800 58 293 2.0 4.0 0.00 0.00 0.00 81 1018.8
20260905153300 57 297 0.0 4.0 0.00 0.00 0.00 83 1018.8
20260905152800 57 284 2.0 4.0 0.00 0.00 0.00 84 1018.9
20260905151800 56 286 0.0 4.0 0.00 0.00 0.00 85 1018.9
20260905151300 56 304 1.0 4.0 0.00 0.00 0.00 86 1018.8
20260905150259 55 286 2.0 3.0 0.00 0.00 0.00 87 1018.7
20260905145800 55 260 1.0 3.0 0.00 0.00 0.00 88 1018.7
20260905144259 55 282 2.0 4.0 0.00 0.00 0.00 89 1018.7
20260905143759 55 307 3.0 5.0 0.00 0.00 0.00 89 1018.6
20260905143259 55 261 1.0 5.0 0.00 0.01 0.00 89 1018.5
20260905142259 55 283 2.0 4.0 0.00 0.01 0.00 90 1018.5
20260905141759 54 274 2.0 4.0 0.00 0.01 0.00 91 1018.4
20260905141259 54 262 2.0 4.0 0.00 0.01 0.00 91 1018.4
20260905140759 54 283 2.0 4.0 0.00 0.01 0.00 91 1018.3
20260905140259 54 267 1.0 4.0 0.00 0.02 0.00 92 1018.3
20260905135259 53 262 2.0 4.0 0.00 0.02 0.00 92 1018.3
20260905134758 53 279 2.0 4.0 0.00 0.02 0.00 92 1018.3
20260905134258 53 258 3.0 4.0 0.00 0.03 0.00 92 1018.3
20260905133758 53 266 2.0 4.0 0.00 0.03 0.00 92 1018.3
20260905133258 53 277 3.0 4.0 0.00 0.03 0.00 92 1018.3
20260905132758 53 285 2.0 3.0 0.00 0.03 0.00 92 1018.3
20260905131757 53 268 2.0 3.0 0.00 0.04 0.00 92 1018.2
20260905131257 53 262 0.0 1.0 0.00 0.04 0.00 92 1018.3
20260905130757 53 262 0.0 3.0 0.00 0.04 0.00 92 1018.2
20260905130257 53 263 1.0 3.0 0.00 0.04 0.00 92 1018.3
20260905125257 53 255 1.0 3.0 0.00 0.04 0.00 92 1018.2
20260905124757 53 255 0.0 3.0 0.00 0.04 0.00 92 1018.2
20260905124257 53 264 3.0 3.0 0.00 0.04 0.00 92 1018.1
20260905123756 53 257 2.0 2.0 0.00 0.04 0.00 92 1018.1
20260905123257 53 318 0.0 0.0 0.00 0.05 0.00 91 1018.1
20260905122757 53 318 0.0 0.0 0.00 0.05 0.00 91 1018.1
20260905121756 53 318 0.0 0.0 0.00 0.05 0.00 91 1018.0
20260905120256 53 265 0.0 2.0 0.00 0.06 0.00 90 1018.0
20260905115755 53 266 0.0 3.0 0.00 0.06 0.00 90 1018.0
20260905114756 54 69 2.0 3.0 0.00 0.06 0.00 89 1017.9
20260905114256 54 281 2.0 3.0 0.00 0.06 0.00 89 1017.9
20260905113755 54 261 2.0 3.0 0.00 0.06 0.00 89 1017.8
20260905113255 54 259 2.0 3.0 0.00 0.07 0.00 88 1017.8
20260905112755 54 259 2.0 3.0 0.00 0.07 0.00 89 1017.8
20260905112255 54 257 1.0 3.0 0.00 0.07 0.00 88 1017.8
20260905111755 54 266 0.0 3.0 0.00 0.07 0.00 89 1017.8
20260905110755 54 296 3.0 4.0 0.00 0.07 0.00 90 1017.8
20260905110255 53 257 2.0 2.0 0.00 0.07 0.00 90 1017.8
20260905105755 53 269 0.0 2.0 0.00 0.07 0.00 90 1017.8
20260905105254 53 269 0.0 2.0 0.00 0.07 0.00 91 1017.8
20260905104754 53 270 1.0 3.0 0.00 0.07 0.00 91 1017.8
20260905104254 54 272 2.0 4.0 0.00 0.07 0.00 90 1017.9
20260905103754 54 244 2.0 4.0 0.00 0.07 0.00 90 1017.8
20260905103254 54 255 1.0 5.0 0.00 0.07 0.00 90 1017.8
20260905102754 54 262 2.0 5.0 0.00 0.07 0.00 90 1017.8
20260905102254 54 259 3.0 5.0 0.00 0.07 0.00 91 1017.9
20260905101253 54 278 2.0 5.0 0.00 0.07 0.00 91 1017.8
20260905095753 54 289 5.0 5.0 0.00 0.07 0.00 91 1017.6
20260905095253 54 241 2.0 5.0 0.00 0.07 0.00 91 1017.5
20260905094753 54 279 2.0 4.0 0.00 0.07 0.00 91 1017.6
20260905094253 54 264 2.0 5.0 0.00 0.07 0.00 91 1017.5
20260905093753 54 270 2.0 6.0 0.00 0.07 0.00 91 1017.6
20260905092752 54 260 3.0 6.0 0.00 0.07 0.00 92 1017.7
20260905091752 54 271 2.0 5.0 0.00 0.07 0.00 92 1017.7
20260905091253 54 248 2.0 5.0 0.00 0.07 0.00 92 1017.7
20260905090752 54 262 4.0 5.0 0.00 0.07 0.00 92 1017.6
20260905090252 54 262 3.0 3.0 0.00 0.07 0.00 92 1017.6
20260905085752 54 259 2.0 3.0 0.00 0.07 0.00 91 1017.6
20260905084752 55 257 2.0 4.0 0.00 0.07 0.00 91 1017.5
20260905084251 55 266 3.0 4.0 0.00 0.07 0.00 91 1017.5
20260905083752 55 259 2.0 4.0 0.00 0.07 0.00 91 1017.5
20260905083251 55 262 2.0 4.0 0.00 0.07 0.00 90 1017.4
20260905082752 55 280 2.0 4.0 0.00 0.07 0.00 90 1017.4
20260905081752 55 278 2.0 5.0 0.00 0.07 0.00 91 1017.3
20260905081251 55 282 3.0 5.0 0.00 0.07 0.00 90 1017.3
20260905080751 55 264 3.0 5.0 0.00 0.07 0.00 90 1017.3
20260905080251 55 281 3.0 5.0 0.00 0.07 0.00 90 1017.4
20260905075751 55 268 1.0 5.0 0.00 0.07 0.00 90 1017.4
20260905075251 55 269 4.0 5.0 0.00 0.07 0.00 90 1017.4
20260905074751 55 278 4.0 4.0 0.00 0.07 0.00 90 1017.4
20260905074250 55 280 1.0 4.0 0.00 0.07 0.00 90 1017.3
20260905073750 55 286 3.0 4.0 0.00 0.07 0.00 90 1017.3
20260905072750 55 278 2.0 4.0 0.00 0.07 0.00 90 1017.2
20260905072250 55 271 2.0 5.0 0.00 0.07 0.00 90 1017.2
20260905071749 55 283 4.0 5.0 0.00 0.07 0.00 90 1017.3
20260905071249 55 262 1.0 4.0 0.00 0.07 0.00 90 1017.3
20260905070249 56 283 4.0 5.0 0.00 0.07 0.00 89 1017.2
20260905065750 56 265 3.0 5.0 0.00 0.07 0.07 88 1017.2
20260905064749 56 269 2.0 2.0 0.00 0.07 0.07 88 1017.1
20260905063749 56 268 0.0 0.0 0.00 0.07 0.07 88 1017.0
20260905062748 56 268 0.0 0.0 0.00 0.07 0.07 88 1016.9
20260905062249 56 268 0.0 0.0 0.00 0.07 0.07 88 1016.9
20260905061748 56 268 0.0 0.0 0.00 0.07 0.07 87 1016.9
20260905061248 57 268 0.0 0.0 0.00 0.07 0.07 87 1016.9
20260905060748 57 268 0.0 0.0 0.00 0.07 0.07 87 1017.0
20260905060248 57 268 0.0 0.0 0.00 0.07 0.07 86 1016.9
20260905055748 57 268 0.0 2.0 0.00 0.07 0.07 86 1016.9
20260905055248 57 268 0.0 2.0 0.00 0.07 0.07 86 1016.9
20260905054748 57 268 1.0 2.0 0.00 0.07 0.07 86 1016.8
20260905054248 57 268 2.0 2.0 0.00 0.07 0.07 86 1016.9
20260905053748 57 268 0.0 1.0 0.00 0.07 0.07 87 1016.9
20260905053248 57 268 0.0 1.0 0.00 0.07 0.07 87 1016.8
20260905052248 57 268 0.0 3.0 0.00 0.07 0.07 87 1016.9